Hourly Data Report for September 27, 2017

All times are specified in Local Standard Time (LST). Add 1 hour to adjust for Daylight Saving Time where and when it is observed.

KUGLUKTUK A
NUNAVUT

67°49'00.000" N
115°08'38.000" W
22.60 m
2300903
71938
YCO

Download Data

Hourly Data (September 2017)
Hourly Data Report for September 27, 2017
Temp Definition
°C
Dew Point Temp Definition
°C
Rel Hum Definition
%
Wind Dir Definition
10's deg

Wind Spd Definition
km/h
Visibility Definition
km
Stn Press Definition
kPa
Hmdx Definition


Wind Chill Definition


Weather Definition


TIME
00:00 Legend Double Dagger 1.8 -0.4 85 29 16 24.1 101.46     LegendNANA
01:00 Legend Double Dagger 1.4 -0.9 84 28 16 24.1 101.55     LegendNANA
02:00 Legend Double Dagger 1.2 -1.0 86 29 17 24.1 101.64     Mostly Cloudy
03:00 Legend Double Dagger 0.6 -1.4 87 27 16 24.1 101.73     LegendNANA
04:00 Legend Double Dagger -1.6 -2.4 94 24 14 24.1 101.80   -6 LegendNANA
05:00 Legend Double Dagger -1.1 -2.2 92 27 21 24.1 101.86   -7 Mostly Cloudy
06:00 Legend Double Dagger -1.0 -2.6 89 28 16 24.1 101.92   -6 LegendNANA
07:00 Legend Double Dagger -1.8 -4.3 83 29 16 24.1 101.99   -7 LegendNANA
08:00 Legend Double Dagger -1.8 -3.2 91 24 9 24.1 102.04   -5 Mainly Clear
09:00 Legend Double Dagger 0.8 -2.8 77 25 12 24.1 102.07     LegendNANA
10:00 Legend Double Dagger 1.2 -2.5 76 25 17 24.1 102.11     LegendNANA
11:00 Legend Double Dagger 2.4 -2.6 70 26 18 24.1 102.16     Mainly Clear
12:00 Legend Double Dagger 3.1 -3.2 63 29 16 24.1 102.19     LegendNANA
13:00 Legend Double Dagger 3.6 -3.8 59 29 16 24.1 102.26     LegendNANA
14:00 Legend Double Dagger 3.0 -2.2 69 35 15 24.1 102.28     Mostly Cloudy
15:00 Legend Double Dagger 3.0 -3.0 65 33 8 24.1 102.29     LegendNANA
16:00 Legend Double Dagger 3.1 -3.1 64 35 9 24.1 102.30     LegendNANA
17:00 Legend Double Dagger 2.7 -3.1 66 1 14 24.1 102.31     Mostly Cloudy
18:00 Legend Double Dagger 2.1 -3.5 67 4 12 24.1 102.29     LegendNANA
19:00 Legend Double Dagger 1.0 -2.6 77 6 14 24.1 102.27     LegendNANA
20:00 Legend Double Dagger 0.5 -2.8 79 8 13 24.1 102.25     Mainly Clear
21:00 Legend Double Dagger -0.4 -2.6 85 11 9 24.1 102.24   -4 LegendNANA
22:00 Legend Double Dagger -1.4 -3.0 89 12 9 24.1 102.24   -5 LegendNANA
23:00 Legend Double Dagger -1.8 -3.0 92 11 8 24.1 102.19   -5 Mostly Cloudy

Notes on Data Quality.

Legend

  • E = Estimated
  • M = Missing
  • NA = Not Available
  • ‡ = Partner data that is not subject to review by the National Climate Archives
Date modified: